Overview Statistics Trail Chart Weather Telemetry Raw packets
 

This is the latest recevied weather packets stored in our database for station/object WD7OO. If no packets are shown the sender has not sent any weather packets the latest 10 day(s).

<< 92 93 94 95 96 97 98 >>
Time Temp. Humidity Pressure Rain* Wind** Luminosity Snow
1787944388 26.11° C 63% 1021.4 hPa 0 mm - 137 W/m² -
1787944082 26.11° C 58% 1021.6 hPa 0 mm - 183 W/m² -
1787943777 27.22° C 55% 1021.6 hPa 0 mm - 120 W/m² -
1787943472 27.78° C 55% 1021.6 hPa 0 mm - 141 W/m² -
1787943168 27.78° C 54% 1021.6 hPa 0 mm - 659 W/m² -
1787942862 27.78° C 54% 1021.6 hPa 0 mm - 652 W/m² -
1787942558 27.78° C 53% 1021.5 hPa 0 mm - 656 W/m² -
1787942257 27.22° C 52% 1021.8 hPa 0 mm - 672 W/m² -
1787941952 27.22° C 57% 1021.9 hPa 0 mm - 657 W/m² -
1787941651 27.78° C 56% 1021.8 hPa 0 mm - 644 W/m² -
1787941346 27.22° C 51% 1022.1 hPa 0 mm - 659 W/m² -
1787941046 26.67° C 56% 1021.9 hPa 0 mm - 628 W/m² -
1787940745 26.67° C 53% 1021.8 hPa 0 mm - 598 W/m² -
1787940443 26.67° C 55% 1021.8 hPa 0 mm - 621 W/m² -
1787940138 27.22° C 57% 1022 hPa 0 mm - 694 W/m² -
1787939832 26.67° C 52% 1021.8 hPa 0 mm - 697 W/m² -
1787939532 26.67° C 57% 1022.1 hPa 0 mm - 676 W/m² -
1787939226 26.67° C 55% 1022.2 hPa 0 mm - 699 W/m² -
1787938921 26.67° C 55% 1022 hPa 0 mm - 694 W/m² -
1787938620 26.67° C 52% 1022.2 hPa 0 mm - 674 W/m² -
1787938316 26.11° C 57% 1022 hPa 0 mm - 644 W/m² -
1787938012 26.67° C 59% 1022.1 hPa 0 mm - 684 W/m² -
1787937706 26.67° C 57% 1022.2 hPa 0 mm - 673 W/m² -
1787937403 27.22° C 58% 1022.2 hPa 0 mm - 670 W/m² -
1787937099 26.67° C 60% 1022.3 hPa 0 mm - 635 W/m² -

* Rain latest hour (hover to see other rain measurements)
** Current wind speed in m/s (hover to see current wind gust speed)